Location: Melbourne
(37.8170°S, 144.9670°E)
Time: 12:54:54
(UTC+10:00)

Transit 2A - All Passes

Search period start: 16 September 2014 00:00
Search period end: 26 September 2014 00:00
Orbit: 601 x 962 km, 66.7° (Epoch: 15 September)

Date Brightness Start Highest point End Pass type
(mag) Time Alt. Az. Time Alt. Az. Time Alt. Az.
16 Sep - 00:00:00 13° SE 23:59:45 14° SE 00:00:34 10° SE night (unlit)
16 Sep - 01:32:20 10° WNW 01:37:58 33° SW 01:43:38 10° S visible
16 Sep - 08:38:51 10° S 08:43:32 26° SE 08:47:50 10° ENE daylight
16 Sep - 10:21:48 10° SW 10:27:01 44° WNW 10:31:43 10° N daylight
16 Sep - 23:15:39 10° NNE 23:21:08 32° ENE 23:26:42 10° SE night (unlit)
17 Sep - 00:58:15 10° NW 01:04:17 44° SW 01:10:20 10° SSE visible
17 Sep - 08:05:46 10° S 08:09:43 19° SE 08:13:25 10° E daylight
17 Sep - 09:48:05 10° SSW 09:53:37 66° WNW 09:58:32 10° NNE daylight
17 Sep - 22:43:04 10° NNE 22:47:48 23° ENE 22:52:37 10° SE night (unlit)
18 Sep - 00:24:24 10° NW 00:30:39 60° WSW 00:36:57 10° SSE visible
18 Sep - 02:12:35 10° WSW 02:15:15 13° SW 02:17:55 10° SSW visible
18 Sep - 07:32:56 10° S 07:35:50 14° SE 07:38:36 10° ESE daylight
18 Sep - 09:14:30 10° SSW 09:20:08 84° ESE 09:25:07 10° NNE daylight
18 Sep - 11:01:59 10° W 11:02:19 10° W 11:02:38 10° WNW daylight
18 Sep - 22:11:00 10° NE 22:14:32 16° ENE 22:18:06 10° ESE night (unlit)
18 Sep - 23:50:44 10° NNW 23:57:04 82° WSW 00:03:29 10° SSE visible
19 Sep - 01:37:22 10° W 01:41:20 17° SW 01:45:17 10° S visible
19 Sep - 07:01:07 10° SSE 07:01:53 10° SE 07:02:38 10° SE daylight
19 Sep - 08:41:02 10° SSW 08:46:34 57° ESE 08:51:29 10° NE daylight
19 Sep - 10:25:54 10° WSW 10:29:06 16° WNW 10:32:08 10° NW daylight
19 Sep - 23:17:16 10° NNW 23:23:34 74° ENE 23:29:56 10° SSE visible
20 Sep - 01:02:39 10° W 01:07:29 22° SW 01:12:17 10° S visible
20 Sep - 08:07:39 10° SSW 08:12:56 40° SE 08:17:39 10° NE daylight
20 Sep - 09:51:32 10° SW 09:55:51 25° WNW 09:59:49 10° NNW daylight
20 Sep - 22:44:01 10° N 22:50:06 52° ENE 22:56:16 10° SE night (unlit)
21 Sep - 00:28:14 10° WNW 00:33:42 29° SW 00:39:08 10° S visible
21 Sep - 07:34:23 10° S 07:39:13 28° SE 07:43:36 10° ENE daylight
21 Sep - 09:17:33 10° SW 09:22:32 37° WNW 09:27:02 10° N daylight
21 Sep - 22:11:00 10° N 22:16:42 37° ENE 22:22:28 10° SE night (unlit)
21 Sep - 23:54:04 10° WNW 23:59:58 39° SW 00:05:52 10° SSE visible
22 Sep - 07:01:14 10° S 07:05:25 21° SE 07:09:17 10° E daylight
22 Sep - 08:43:47 10° SW 08:49:09 56° WNW 08:53:56 10° N daylight
22 Sep - 21:38:16 10° NNE 21:43:21 26° ENE 21:48:29 10° SE night (unlit)
22 Sep - 23:20:07 10° NW 23:26:19 53° WSW 23:32:31 10° SSE visible
23 Sep - 01:09:09 10° SW 01:11:03 11° SW 01:12:55 10° SSW visible
23 Sep - 06:28:19 10° S 06:31:33 15° SE 06:34:37 10° ESE daylight
23 Sep - 08:10:09 10° SSW 08:15:42 85° WNW 08:20:36 10° NNE daylight
23 Sep - 21:05:58 10° NE 21:10:03 18° ENE 21:14:10 10° ESE night (unlit)
23 Sep - 22:46:22 10° NW 22:52:43 73° WSW 22:59:05 10° SSE visible
24 Sep - 00:33:34 10° WSW 00:37:05 15° SW 00:40:35 10° S visible
24 Sep - 05:55:55 10° SSE 05:57:37 11° SE 05:59:17 10° SE daylight
24 Sep - 07:36:38 10° SSW 07:42:09 66° ESE 07:47:03 10° NE daylight
24 Sep - 09:22:05 10° WSW 09:24:33 14° WNW 09:26:55 10° NW daylight
24 Sep - 20:34:35 10° ENE 20:36:48 12° E 20:39:02 10° E night (unlit)
24 Sep - 22:12:49 10° NNW 22:19:11 83° ENE 22:25:34 10° SSE visible
24 Sep - 23:58:41 10° W 00:03:12 20° SW 00:07:42 10° S visible
25 Sep - 07:03:13 10° SSW 07:08:32 45° SE 07:13:18 10° NE daylight
25 Sep - 08:47:26 10° WSW 08:51:19 21° WNW 08:54:55 10° NNW daylight
25 Sep - 21:39:29 10° N 21:45:42 60° ENE 21:51:56 10° SE visible
25 Sep - 23:24:09 10° WNW 23:29:24 26° SW 23:34:36 10° S visible
